2022-043E (52324 NORAD) Tracking and Keplerian Element Data

This shows tracking and keplerian element data for the satellite.

Feedback or suggestion? Click here.




ElementValue
Catalog52324
Name2022-043E
Epoch Orbit425
Epoch Day147.01290822
Epoch Year2022
RAAN222.718
Inclination97.4643
Eccentricity0.0021059
Argument of Perigee212.0062
Mean Anonmoly273.2836
Mean Motion15.30067109
Decay Rate0.0008558
L11 52324U 22043E 22147.01290822 .00085580 00000+0 28950-2 0 9998
L22 52324 97.4643 222.7180 0021059 212.0062 273.2836 15.30067109 4257



Live tracking and technical data element details for 2022-043E (NORAD 52324). 2022-043E can be tracked NOW for your location showing map with azimuth and elevation plus other details from your city location.







IsCatalogInMostPopularTable: catalog: 52324, numindb: 13
Update: records affected: 1



GetName: 52324 2022-043E

Hit Count: updated at: Sun, 28 May 2023 06:58:20 GMT